Zurück zum Katalog

CTS DEB

ARRAY COVER

AktivMEO
NORAD 39689·DEBRIS·🇨🇦 Canada

Gestartet Jan 17, 1976 von Cape Canaveral Space Force Station

Loading…

Nächste Überflüge (nächste 24 Stunden)

TLE

AktuellSource: Space-Track

Epoche: Sep 14, 2026, 00:22 UTC

1 39689U 76004F   26257.01582400 -.00000239  00000-0  00000-0 0  9999
2 39689   3.0408 265.2390 0113553  66.5800 294.1705  1.00231755 67782

Verfolge CTS DEB in Echtzeit mit AllMySat

Download on the App Store